SCP
0 0 0 0 0 0 0 0 0 0 0 0 1 1 1 2 2 3 3 3 3 3 3 4 4 4 5 5 5 4 3 3 2 2 2 2 1 1 0 1 1 1 1 1
0 0 0 0 0 0 0 0 0 0 0 0 0 0 1 1 2 2 2 3 3 3 3 4 5 5 6 6 5 5 4 3 2 2 2 2 1 1 1 1 1 1 1 1
0 0 0 0 0 0 0 0 0 0 0 0 0 0 0 1 1 2 3 3 3 3 4 5 6 6 7 6 6 5 5 4 3 3 2 2 1 1 1 1 1 1 1 1
0 0 0 0 0 0 0 0 0 0 0 0 0 0 0 1 2 2 3 4 4 4 5 6 7 7 7 6 5 4 4 4 4 3 3 2 2 1 1 1 1 1 1 1
0 0 0 0 0 0 0 0 0 0 0 0 0 0 0 1 2 2 3 4 4 5 5 6 6 6 6 5 4 3 3 3 3 3 3 3 3 2 1 1 1 1 1 1
0 0 0 0 0 0 0 0 0 0 0 0 0 0 0 1 1 1 2 3 3 4 4 4 4 4 4 4 3 3 2 3 3 3 4 4 4 3 2 2 1 1 1 1
0 0 0 0 0 0 0 0 0 0 0 0 0 0 0 1 1 1 1 2 2 2 2 2 2 2 2 3 3 2 3 3 3 3 4 4 4 4 3 2 2 1 1 1
0 0 0 0 0 0 0 0 0 0 0 0 0 0 1 1 1 1 1 1 1 1 1 1 1 1 1 1 2 2 3 3 4 4 4 4 4 4 3 3 2 2 1 1
0 0 0 0 0 0 0 0 0 0 0 0 0 1 1 1 1 0 0 0 0 0 0 0 0 0 0 1 1 2 2 3 4 5 5 5 4 4 4 3 3 2 2 2
0 0 0 0 0 0 0 0 0 0 0 0 0 1 1 1 1 0 0 0 0 0 0 0 0 0 0 0 0 1 1 2 3 4 4 4 4 4 4 3 3 3 2 2
0 0 0 0 0 0 0 0 0 0 0 0 0 0 1 1 0 0 0 0 0 0 0 0 0 0 0 0 0 0 0 1 1 2 2 3 3 4 4 4 3 3 3 3
0 0 0 0 0 0 0 0 0 0 0 0 0 0 0 0 0 0 0 0 0 0 0 0 0 0 0 0 0 0 0 0 0 0 1 1 2 3 3 3 3 3 3 3
0 0 0 0 0 0 0 0 0 0 0 0 0 1 0 0 0 0 0 0 0 0 0 0 0 0 0 0 0 0 0 0 0 0 0 0 0 1 2 2 2 3 3 3
0 0 0 0 0 0 0 0 0 0 0 0 1 0 0 0 0 0 0 0 0 0 0 0 0 0 0 0 0 0 0 0 0 0 0 0 0 0 0 1 1 2 2 3
0 0 0 0 0 0 0 0 0 0 0 0 0 0 0 0 0 0 0 0 0 0 0 0 0 0 0 0 0 0 0 0 0 0 0 0 0 0 0 0 1 1 2 2
0 0 0 0 0 0 0 0 0 0 0 0 0 0 0 0 0 0 0 0 0 0 0 0 0 0 0 0 0 0 0 0 0 0 0 0 0 0 0 0 0 0 1 1
0 0 0 0 0 0 0 0 0 0 0 0 0 0 0 0 0 0 0 0 0 0 0 0 0 0 0 0 0 0 0 0 0 0 0 0 0 0 0 0 0 0 1 1
0 0 0 0 0 0 0 0 0 0 0 0 0 0 0 0 0 0 0 0 0 0 0 0 0 0 0 0 0 0 0 0 0 0 0 0 0 0 0 0 0 0 1 1
0 0 0 0 0 0 0 0 0 0 0 0 0 0 0 0 0 0 0 0 0 0 0 0 0 0 0 0 0 0 0 0 0 0 0 0 0 0 0 0 0 0 0 1
0 0 0 0 0 0 0 0 0 0 0 0 0 0 0 0 0 0 0 0 0 0 0 0 0 0 0 0 0 0 0 0 0 0 0 0 0 0 0 0 0 0 0 1
0 0 0 0 0 0 0 0 0 0 0 0 0 0 0 0 0 0 0 0 0 0 0 0 0 0 0 0 0 0 0 0 0 0 0 0 0 0 0 0 0 0 0 0
0 0 0 0 0 0 0 0 0 0 0 0 0 0 0 0 0 0 0 0 0 0 0 0 0 0 0 0 0 0 0 0 0 0 0 0 0 0 0 0 0 0 0 0
0 0 0 0 0 0 0 0 0 0 0 0 0 0 0 0 0 0 0 0 0 0 0 0 0 0 0 0 0 0 0 0 0 0 0 0 0 0 0 0 0 0 0 0
0 0 0 0 0 0 0 0 0 0 0 0 0 0 0 0 0 0 0 0 0 0 0 0 0 0 0 0 0 0 0 0 0 0 0 0 0 0 0 0 0 0 0 0
0 0 0 0 0 0 0 0 0 0 0 0 0 0 0 0 0 0 0 0 0 0 0 0 0 0 0 0 0 0 0 0 0 0 0 0 0 0 0 0 0 0 0 0
0 0 0 0 0 0 0 0 0 0 0 0 0 0 0 0 0 0 0 0 0 0 0 0 0 0 0 0 0 0 0 0 0 0 0 0 0 0 0 0 0 0 0 0
Wind_Speed
3 5 0 3 3 3 2 4 4 1 3 6 5 5 1 1 4 6 8 9 10 10 8 8 8 8 8 8 9 9 8 7 6 4 4 4 4 4 4 4 4 6 6 7
7 2 4 1 1 3 3 4 4 3 1 7 8 8 5 3 4 4 6 8 9 8 8 8 7 7 7 7 7 7 7 7 7 5 4 3 4 4 4 5 4 6 6 7
4 6 2 2 3 3 3 5 5 7 7 8 9 12 9 6 5 4 5 6 7 8 8 8 7 6 6 5 5 5 5 6 7 6 5 4 4 5 6 5 4 4 6 7
1 2 2 4 3 6 5 3 6 8 11 10 5 11 5 3 5 4 4 3 4 4 5 4 4 4 3 2 3 3 5 6 7 8 8 8 7 7 6 5 5 5 6 7
3 4 6 6 5 6 6 4 7 10 10 11 6 9 1 2 3 4 5 6 6 5 5 6 6 5 4 4 3 4 5 7 7 8 8 9 9 7 5 5 5 6 6 6
3 2 4 5 4 4 3 6 8 9 9 7 1 7 3 8 11 10 11 13 13 13 13 13 13 11 10 9 7 6 6 6 7 8 9 9 8 7 7 7 7 6 5 5
2 2 1 3 7 4 7 10 8 8 6 2 2 7 8 10 10 12 12 14 15 16 15 15 16 15 14 14 12 10 8 7 6 7 7 8 8 7 8 8 7 7 6 6
4 3 3 4 8 11 10 10 10 9 8 5 4 4 10 10 10 11 13 14 15 16 16 16 16 15 14 14 14 13 12 9 8 6 6 6 6 7 6 7 7 7 6 7
6 6 3 2 4 8 9 7 8 10 12 11 6 5 11 9 10 11 12 13 15 14 14 14 14 14 13 14 14 14 13 12 11 9 8 6 6 8 8 8 8 8 6 7
7 10 9 3 4 2 5 7 5 8 9 10 8 8 5 7 7 8 10 11 12 12 12 13 12 12 12 12 12 12 12 12 12 12 10 8 8 8 9 9 9 9 9 9
8 10 10 6 5 7 3 3 5 7 7 10 13 4 9 7 6 6 8 9 10 12 12 11 10 11 11 11 11 11 11 11 11 12 12 11 11 10 10 9 10 10 10 10
4 8 11 9 1 2 5 4 5 7 9 10 13 2 9 7 5 6 8 10 11 12 12 11 11 10 10 11 11 11 11 11 11 11 11 12 12 12 12 11 12 11 12 11
4 7 11 6 6 6 5 5 7 9 11 11 13 2 7 5 5 7 10 12 13 14 14 13 12 11 11 11 11 11 11 11 11 11 11 12 12 13 13 13 13 13 12 12
6 9 12 13 10 8 7 6 7 10 11 11 10 4 5 4 7 10 11 12 13 13 12 12 11 10 9 9 9 10 10 10 10 10 10 10 11 12 13 13 14 14 13 13
5 9 9 10 9 8 6 6 7 8 9 10 9 6 6 8 10 11 12 13 15 15 13 12 12 12 11 11 11 11 11 11 10 11 11 10 10 10 12 12 13 13 14 14
4 7 9 10 5 4 0 6 6 5 7 7 6 3 6 9 10 12 14 16 18 18 17 16 16 17 16 16 15 14 14 14 13 13 13 12 12 12 12 12 13 13 13 13
4 6 8 10 3 9 2 8 9 6 5 7 6 6 11 14 14 15 18 20 20 19 19 20 20 19 19 19 18 17 16 16 16 16 15 15 14 14 13 13 12 12 13 13
6 6 6 9 9 7 9 6 7 7 4 3 4 9 14 18 19 19 21 19 18 20 22 22 21 21 21 20 19 19 18 17 17 17 17 16 15 16 14 13 13 12 11 11
5 6 7 7 10 4 6 5 8 9 11 4 8 17 21 22 24 20 16 19 22 24 23 22 22 23 22 22 21 21 20 19 18 18 17 17 16 16 15 15 14 12 11 11
2 4 6 6 10 5 6 7 8 9 9 3 17 21 23 25 22 18 21 23 24 24 22 22 23 23 23 22 21 21 21 20 19 18 17 16 16 16 16 16 14 13 11 11
7 5 6 8 7 5 6 8 11 11 12 18 20 22 23 23 22 24 26 25 25 25 25 24 23 21 20 20 20 21 21 20 19 18 17 16 16 16 16 16 14 13 12 11
7 7 6 7 7 5 7 10 10 13 17 19 22 22 24 25 26 26 26 26 25 25 25 24 22 20 19 19 19 21 21 20 18 17 17 17 17 16 14 14 13 12 11 11
5 7 6 6 5 4 7 10 13 15 19 20 21 23 24 26 27 28 27 26 25 25 24 22 22 21 19 18 18 20 20 18 18 18 18 17 17 15 14 14 14 12 11 9
4 1 5 5 4 8 13 13 15 18 20 21 22 24 25 27 28 28 26 24 25 24 23 21 22 22 20 19 19 19 19 18 18 18 16 15 15 15 14 12 12 11 9 8
4 1 5 8 8 12 11 17 19 19 20 22 22 24 25 27 28 28 25 25 23 23 22 21 20 21 22 20 18 19 18 18 18 17 15 14 14 13 12 12 10 10 8 5
1 4 6 8 11 14 19 19 20 21 21 23 25 26 25 25 27 27 25 24 23 23 22 21 21 22 21 20 19 18 18 17 16 14 14 11 10 10 10 10 10 11 9 7
Wind_Direction
247 251 27 47 349 358 299 271 262 314 1 312 316 312 306 171 202 199 195 192 196 198 184 187 193 193 190 190 193 198 203 195 201 204 220 225 242 259 269 272 286 286 292 300
221 123 51 42 195 235 252 259 255 235 301 305 301 290 270 236 231 233 225 211 209 203 191 191 188 183 182 178 181 184 191 189 198 194 214 241 279 278 291 294 287 283 294 299
11 51 40 219 193 250 272 299 316 313 308 261 276 267 234 209 227 234 248 249 238 224 210 194 189 180 176 171 180 186 191 193 206 203 214 215 232 251 251 262 269 288 301 299
340 39 312 283 294 296 295 334 307 300 292 293 296 287 251 228 239 250 267 272 269 251 234 206 185 175 189 205 217 222 223 220 216 214 227 236 255 274 296 300 303 303 291 296
330 335 308 301 328 299 326 330 290 294 289 282 251 273 89 97 335 4 23 23 15 18 26 28 26 20 0 335 305 280 261 249 238 234 234 239 250 264 277 286 287 287 291 290
312 290 299 324 314 292 289 258 254 252 260 253 186 289 70 47 16 17 35 38 37 36 37 33 27 22 13 358 344 318 290 271 259 248 245 244 255 263 277 279 289 286 291 292
263 213 177 294 301 272 268 282 281 266 245 253 122 275 68 52 36 36 43 46 45 45 42 39 33 28 22 13 3 350 335 313 293 270 260 253 254 257 258 267 274 282 294 298
293 294 11 343 330 317 301 288 278 292 296 298 239 263 93 80 68 61 57 54 50 47 44 41 37 32 27 22 16 10 3 351 340 320 300 283 271 263 261 256 275 281 288 299
306 310 336 345 319 305 298 281 305 285 275 276 272 128 128 105 79 64 58 51 46 42 39 36 32 28 24 22 19 15 12 8 2 353 336 313 296 284 281 273 260 267 272 280
296 298 308 326 259 182 312 313 279 276 285 284 272 245 172 106 74 61 50 42 35 28 25 23 20 17 14 12 12 10 11 7 3 1 351 340 320 299 285 276 275 274 273 272
293 293 295 287 305 327 261 245 292 285 289 292 291 322 67 82 65 45 38 26 16 9 6 4 5 3 0 0 1 0 359 357 355 355 350 343 335 321 305 288 280 273 267 265
312 296 298 299 63 260 285 308 297 295 293 280 282 6 83 84 66 31 11 5 358 352 348 346 348 348 349 349 348 347 344 345 343 341 337 336 334 331 322 310 297 284 271 262
310 281 286 271 183 193 245 273 289 292 287 279 283 70 100 77 37 10 355 349 343 338 336 333 333 333 336 336 335 333 330 331 329 328 326 326 325 326 324 320 311 297 281 267
276 266 277 296 313 314 287 279 289 285 284 293 307 62 106 32 359 349 340 330 322 317 315 312 311 309 309 309 309 309 310 311 310 310 309 308 310 312 312 313 313 305 291 274
273 269 276 284 293 286 295 319 323 314 321 315 339 28 52 7 340 324 314 309 306 302 298 293 290 290 291 292 291 291 291 290 287 286 287 286 288 292 296 301 305 305 296 279
282 288 290 279 283 275 71 18 354 352 344 341 337 46 17 333 315 302 299 299 298 299 300 301 300 300 300 300 298 296 294 291 285 280 278 278 277 278 282 288 294 297 296 287
295 290 292 296 314 262 149 26 3 360 356 340 338 345 329 316 312 309 307 301 299 304 308 308 306 303 301 298 296 293 292 291 288 283 280 277 274 272 272 274 281 288 296 295
331 315 290 298 296 289 71 42 8 339 306 294 303 316 317 314 314 309 299 303 312 313 309 305 302 300 298 297 295 293 290 289 286 284 281 278 276 275 274 273 275 281 289 294
10 327 308 311 304 114 105 33 357 323 300 272 307 320 320 320 311 302 318 327 314 306 303 301 299 299 298 296 293 291 288 286 283 281 280 279 278 277 276 272 272 276 282 287
21 324 309 323 311 335 72 16 336 293 280 17 326 320 320 318 310 315 324 313 306 304 303 300 298 296 294 293 293 291 288 285 282 280 280 279 277 276 274 272 271 272 275 278
336 334 341 327 314 73 38 343 321 304 331 332 319 317 315 312 307 308 310 309 307 303 301 299 297 296 295 295 292 287 285 282 282 280 278 276 274 272 270 267 263 263 266 273
334 336 348 329 322 51 13 338 335 317 316 315 315 314 312 308 306 306 307 306 305 303 302 302 300 297 297 295 291 286 283 283 281 278 276 273 270 267 268 261 256 256 262 265
360 5 340 341 349 4 329 316 315 315 315 316 315 313 311 308 307 307 307 306 304 303 303 303 300 297 295 292 288 285 285 285 282 277 274 271 267 262 262 260 255 251 249 253
109 315 303 296 297 322 319 317 322 323 318 314 311 310 309 306 306 307 306 305 305 304 304 302 300 297 293 290 287 283 283 281 277 273 271 267 264 259 253 248 247 248 248 248
45 308 301 288 322 318 312 327 327 320 314 311 310 309 308 307 307 307 306 305 304 304 302 300 297 295 293 291 286 283 280 277 273 270 266 263 261 258 256 247 242 249 251 251
58 349 330 327 331 315 316 324 321 317 315 314 313 311 310 308 306 307 306 305 304 303 302 300 296 294 293 292 287 282 277 272 269 265 260 255 252 252 246 241 233 216 229 176